TimeCST,TemperatureF,Dew PointF,Humidity,Sea Level PressureIn,VisibilityMPH,Wind Direction,Wind SpeedMPH,Gust SpeedMPH,PrecipitationIn,Events,Conditions,WindDirDegrees,DateUTC
12:52 AM,28.9,21.0,72,30.13,10.0,ESE,6.9,-,N/A,,Overcast,120,2012-01-30 06:52:00
1:52 AM,30.0,19.9,66,30.11,10.0,ESE,11.5,-,N/A,,Overcast,120,2012-01-30 07:52:00
2:52 AM,30.0,19.9,66,30.06,10.0,SE,9.2,-,N/A,,Partly Cloudy,140,2012-01-30 08:52:00
3:52 AM,30.9,19.9,64,30.02,10.0,SE,13.8,19.6,N/A,,Mostly Cloudy,140,2012-01-30 09:52:00
4:52 AM,32.0,21.0,64,29.98,10.0,SSE,10.4,-,N/A,,Mostly Cloudy,150,2012-01-30 10:52:00
5:52 AM,33.1,21.9,64,29.95,10.0,South,8.1,-,N/A,,Clear,170,2012-01-30 11:52:00
6:52 AM,35.1,24.1,64,29.94,10.0,South,8.1,-,N/A,,Overcast,170,2012-01-30 12:52:00
7:52 AM,37.0,25.0,62,29.93,10.0,SSW,9.2,-,N/A,,Overcast,210,2012-01-30 13:52:00
8:52 AM,39.0,27.0,62,29.91,10.0,SSW,12.7,-,N/A,,Overcast,210,2012-01-30 14:52:00
9:52 AM,42.1,28.9,60,29.90,10.0,SSW,10.4,20.7,N/A,,Mostly Cloudy,210,2012-01-30 15:52:00
10:52 AM,48.0,30.9,52,29.87,10.0,SW,15.0,24.2,N/A,,Clear,220,2012-01-30 16:52:00
11:52 AM,53.1,33.1,47,29.84,10.0,SW,13.8,23.0,N/A,,Clear,220,2012-01-30 17:52:00
12:52 PM,55.4,33.8,44,29.80,10.0,SW,15.0,26.5,N/A,,Clear,220,2012-01-30 18:52:00
1:52 PM,59.0,32.0,36,29.78,10.0,SW,15.0,28.8,N/A,,Clear,230,2012-01-30 19:52:00
2:52 PM,59.0,32.0,36,29.78,10.0,SW,12.7,21.9,N/A,,Clear,230,2012-01-30 20:52:00
3:52 PM,57.9,34.0,41,29.79,10.0,SSW,12.7,20.7,N/A,,Clear,200,2012-01-30 21:52:00
4:52 PM,55.0,35.1,47,29.80,10.0,SSW,10.4,-,N/A,,Clear,200,2012-01-30 22:52:00
5:52 PM,51.1,34.0,52,29.81,10.0,SSW,4.6,-,N/A,,Clear,210,2012-01-30 23:52:00
6:52 PM,48.0,36.0,63,29.81,10.0,SSW,4.6,-,N/A,,Clear,200,2012-01-31 00:52:00
7:52 PM,51.1,36.0,56,29.80,10.0,SSW,12.7,-,N/A,,Clear,210,2012-01-31 01:52:00
8:52 PM,50.0,35.6,58,29.80,10.0,SSW,12.7,-,N/A,,Clear,210,2012-01-31 02:52:00
9:52 PM,50.0,35.1,57,29.81,10.0,SSW,15.0,-,N/A,,Clear,200,2012-01-31 03:52:00
10:52 PM,50.0,36.0,59,29.81,10.0,SSW,13.8,-,N/A,,Clear,200,2012-01-31 04:52:00